Regional Weather Roundup
Issued by NWS

Home | Current Version | Previous Version | Text Only | Print | Product List | Glossary On
Versions: 1 2 3 4 5 6 7 8 9 10 11 12 13 14 15 16 17 18 19 20 21 22 23 24 25 26 27 28 29 30 31 32 33 34 35 36 37 38 39 40 41 42 43 44 45 46 47 48 49 50
000
ASUS44 KOUN 251610
RWROK

WEATHER ROUNDUP FOR OKLAHOMA
NATIONAL WEATHER SERVICE NORMAN OK
1000 AM CST THU DEC 25 2014

NOTE: "FAIR" INDICATES FEW OR NO CLOUDS BELOW 12,000 FEET WITH NO
      SIGNIFICANT WEATHER AND/OR OBSTRUCTIONS TO VISIBILITY.

OKZ001>007-009>012-014-015-017-251700-
NORTHWEST OKLAHOMA AND THE PANHANDLE

CITY           SKY/WX    TMP DP  RH WIND       PRES   REMARKS
GAGE           MOSUNNY   41  23  48 S24G33    29.62R
ENID/WOODRING  PTSUNNY   45  28  53 S24G36    29.72R
$$

OKZ016-021>023-033>039-044-045-251700-
SOUTHWEST OKLAHOMA

CITY           SKY/WX    TMP DP  RH WIND       PRES   REMARKS
LAWTON/REGL    PTSUNNY   46  28  49 S13       29.87R
LAWTON/FT SILL PTSUNNY   45  28  50 S16       29.85R
FREDERICK      CLOUDY    45  28  51 S14       29.82R
CLINTON        PTSUNNY   42  25  50 S31G38    29.73R
HOBART         PTSUNNY   41  26  55 S24       29.79R
ALTUS AFB      CLOUDY    44  27  50 S17       29.82R
$$

OKZ018>020-024>031-251700-
CENTRAL OKLAHOMA

CITY           SKY/WX    TMP DP  RH WIND       PRES   REMARKS
OKLAHOMA CITY  PTSUNNY   47  24  40 S23G31    29.82R
OKC/WILEY POST MOSUNNY   47  25  42 S24G33    29.81R
OKC/TINKER AFB MOSUNNY   45  25  45 S22G31    29.83R
STILLWATER     MOSUNNY   50  26  39 S18G25    29.80S
GUTHRIE        MOSUNNY   48  24  39 S25G32    29.79S
$$

OKZ008-013-054>072-251700-
NORTHEAST OKLAHOMA

CITY           SKY/WX    TMP DP  RH WIND       PRES   REMARKS
TULSA          PTSUNNY   45  28  51 S25G36    29.87F
TULSA/JONES    SUNNY     44  29  55 S15       29.89F
PONCA CITY     SUNNY     46  26  45 S14G29    29.76R
BARTLESVILLE   SUNNY     43  31  62 S12       29.86R
MUSKOGEE       SUNNY     43  32  65 S14       29.99R
$$

OKZ032-040>043-046>053-073>077-251700-
SOUTH CENTRAL/SOUTHEAST OKLAHOMA

CITY           SKY/WX    TMP DP  RH WIND       PRES   REMARKS
ARDMORE/DWNTWN CLOUDY    45  27  49 SW14G21   29.96R
MCALESTER      MOSUNNY   47  28  47 S13G31    29.99R
$$



USA.gov is the U.S. government's official web portal to all federal, state and local government web resources and services.